Regional Weather Roundup
Issued by NWS Sterling, VA

Home | Current Version | Previous Version | Text Only | Print | Product List | Glossary On
Versions: 1 2 3 4 5 6 7 8 9 10 11 12 13 14 15 16 17 18 19 20 21 22 23 24 25 26 27 28
000
ASUS41 KLWX 230910
RWRLWX

REGIONAL WEATHER ROUNDUP
NATIONAL WEATHER SERVICE BALTIMORE MD/WASHINGTON DC
500 AM EDT THU OCT 23 2014

Note: "FAIR" indicates few or no clouds below 12,000 feet
with no significant weather and/or obstructions to visibility.
 TC=TEMPERATURE CELSIUS

 * =Non NWS site. Station does not report precipitation (e.g. rain,
    snow, etc.), thunder, or fog.

DCZ001-MDZ009-015-VAZ040>042-051-053>054-231000-
WASHINGTON METRO

CITY           SKY/WX    TMP DP  RH WIND       PRES   REMARKS
WASHINGTON NAT CLOUDY    54  41  61 NW20G25   29.89R
DULLES         MOCLDY    50  41  71 NW21G29   29.90S
ANDREWS AFB    CLOUDY    52  43  70 NW17      29.87R
FT BELVOIR     CLOUDY    53  42  66 NW16G25   29.89S
QUANTICO       CLOUDY    52  41  66 N13G20    29.92R
COLLEGE PARK*  CLOUDY    54  43  66 NW10      29.88R
LEESBURG*      MOCLDY    52  45  76 NW16G33   29.92S
MANASSAS*      CLOUDY    52  43  71 NW16G25   29.92R
GAITHERSBURG*  CLOUDY    50  41  71 NW8G16    29.92S

$$

MDZ006>007-011-014-231000-
BALTIMORE METRO

CITY           SKY/WX    TMP DP  RH WIND       PRES   REMARKS
BWI AIRPORT    CLOUDY    52  42  69 NW10G21   29.85S
MD SCIENCE CTR   N/A     54  43  66 MISG      29.84F
MARTIN STATE   CLOUDY    54  46  76 W13G23    29.85R
ANNAPOLIS      CLOUDY    54  44  69 NW16G22   29.83S
FORT MEADE*    CLOUDY    52  43  71 NW12G18   29.88S

$$

MDZ012-015-019>023-231000-
MARYLAND EASTERN SHORE

CITY           SKY/WX    TMP DP  RH WIND       PRES   REMARKS
OCEAN CITY     CLOUDY    50  48  93 NW10G18   29.74F
SALISBURY      CLOUDY    54  47  77 NW16G24   29.78S
BAY BRIDGE AP*   N/A     54  45  71 NW18G28   29.83R
CAMBRIDGE*     CLOUDY    55  46  71 NW15G26   29.81R VSB<1/4
EASTON*        MOCLDY    55  49  81 N17G23    29.85R

$$

MDZ017>025-231000-
SOUTHERN MARYLAND

CITY           SKY/WX    TMP DP  RH WIND       PRES   REMARKS
PATUXENT RIVER CLOUDY    53  43  68 NW22G35   29.83S
ST INIGOES     CLOUDY    53  41  63 NW13G22   29.84S
LEONARDTOWN*   CLOUDY    52  41  66 NW8G18    29.86S

$$

MDZ003>005-231000-
NORTH CENTRAL MARYLAND

CITY           SKY/WX    TMP DP  RH WIND       PRES   REMARKS
FREDERICK*     CLOUDY    55  43  62 N12G18    29.93S
HAGERSTOWN APT CLOUDY    51  41  68 NW15      29.93S
WESTMINSTER*   CLOUDY    52  45  76 NW7       29.87S

$$

MDZ501>502-231000-
WESTERN MARYLAND

CITY           SKY/WX    TMP DP  RH WIND       PRES   REMARKS
OAKLAND*       FOG       37 N/A N/A NW9G18    30.04S VSB 1/4
CUMBERLAND*    CLOUDY    50  41  71 NW7G18    30.07S

$$

VAZ025>031-231000-
SHENANDOAH VALLEY

CITY           SKY/WX    TMP DP  RH WIND       PRES   REMARKS
WINCHESTER*    CLOUDY    50  37  62 NW15G25   29.96S
FRONT ROYAL*   CLOUDY    50  41  71 NW5       29.97R
LURAY*         CLOUDY    52  43  71 W7        29.98F
NEW MARKET*    CLOUDY    48  40  71 CALM      30.00R
STAUNTON*      CLEAR     43  37  79 SE5       30.01R
WAYNESBORO*    FAIR      44  37  77 W6        29.99R

$$

WVZ021-048>050-054>055-231000-
EASTERN WEST VIRGINIA PANHANDLE

CITY           SKY/WX    TMP DP  RH WIND       PRES   REMARKS
MARTINSBURG    CLOUDY    51  39  63 NW13      29.96S
PETERSBURG*    CLOUDY    50  38  64 NW6       30.06R

$$

VAZ036>039-050-231000-
CENTRAL FOOTHILLS

CITY           SKY/WX    TMP DP  RH WIND       PRES   REMARKS
CHARLOTTESVILL CLEAR     51  39  63 NW9       29.94R
CULPEPER*      CLEAR     52  43  71 N12       29.93R
ORANGE*        CLEAR     45  41  87 CALM      29.94R FOG
GORDONSVILLE*  FAIR      50  40  67 W6        29.92S
WARRENTON*     CLOUDY    53  47  80 NW13G20   29.92R

$$

VAZ055>057-231000-
NORTH AND CENTRAL PIEDMONT

CITY           SKY/WX    TMP DP  RH WIND       PRES   REMARKS
FREDERICKSBRG* PTCLDY    52  43  70 NW12G20   29.90R
STAFFORD*      PTCLDY    50  40  68 NW15G22   29.95R

$$

NCZ024-NYZ072-PAZ021-071-VAZ022-071-231000-
OTHER REGIONAL OBSERVATIONS

CITY           SKY/WX    TMP DP  RH WIND       PRES   REMARKS
NEW YORK CITY  LGT RAIN  51  47  86 N10G18    29.73S
PHILADELPHIA   CLOUDY    53  45  74 NW17      29.76R
PITTSBURGH     CLOUDY    45  42  89 NW13      30.12F
ROANOKE        PTCLDY    49  38  65 NW16      30.08S
RICHMOND       PTCLDY    50  42  74 W9        29.91S
RALEIGH        CLEAR     46  40  79 CALM      30.00F

$$

ANZ530>537-231000-
MARINE OBSERVATIONS

STATION/POSITION TIME  TEMP    WIND        PRES
                       AIR SEA DIR/SP/G
                 (UTC) (F)     (DEG/KT/KT) (MB)
THOMAS PT LIGHT  0900   54 62  320/ 18/ 22 1011.1R
BALT KEY BRIDGE  0900   55     310/ 21/ 26 1009.9S
COVE POINT       0900   54     340/ 20/ 26 1010.0R
LEWISETTA        0900   54 60  330/ 17/ 24 1010.6S
SOLOMONS ISLAND  0900      64                N/A
PINEY POINT      0900          340/ 27/ 30   N/A

$$




USA.gov is the U.S. government's official web portal to all federal, state and local government web resources and services.